Lafayette, LA

5:07 AM CDT on September 23, 2017 (GMT -0500)
Lafayette Regional

Weather History for KLFT - May, 2012

Change the Weather History Date:

Monday, May 21, 2012

  Actual Average Record
Temperature  
Mean Temperature 81 °F 78 °F  
Max Temperature 92 °F 87 °F 96 °F (1899)
Min Temperature 69 °F 68 °F 50 °F (1954)
Cooling Degree Days 16 13  
Month to date cooling degree days 243 222  
Year to date cooling degree days 685 476  
Growing Degree Days 30 (Base 50)    
Moisture  
Dew Point 66 °F    
Average Humidity 64    
Maximum Humidity 90    
Minimum Humidity 38    
Precipitation  
Precipitation 0.30 in 0.15 in 3.28 in (1983)
Month to date precipitation 1.72 3.07  
Year to date precipitation 24.05 20.91  
Sea Level Pressure  
Sea Level Pressure 30.04 in    
Wind  
Wind Speed 4 mph (WNW)    
Max Wind Speed 15 mph    
Max Gust Speed 24 mph    
Visibility 9 miles    
Events Rain , Thunderstorm    
T = Trace of Precipitation, MM = Missing Value Source: NWS Daily Summary

Daily Weather History Graph

Daily Weather History Graph

Search for Another Location

Airport or City:

Trip Planner

Search our weather history database for the weather conditions in past years. The results will help you decide how hot, cold, wet, or windy it might be!

Date:

Astronomy

May. 21, 2012 Rise Set
Actual Time 6:10 AM CDT 7:58 PM CDT
Civil Twilight 5:43 AM CDT 8:25 PM CDT
Nautical Twilight 5:11 AM CDT 8:57 PM CDT
Astronomical Twilight 4:38 AM CDT 9:31 PM CDT
Moon 6:35 AM CDT (5/21) 8:47 PM CDT (5/21)
Length of Visible Light 14h 41m
Length of Day
13h 48m
New Moon, 0% of the Moon is Illuminated
May 21
New Moon
May 28
First Quarter
Jun 4
Full
Jun 11
Last Quarter
Jun 19
New

Hourly Weather History & Observations

Time (CDT) Temp. Heat Index Dew Point Humidity Pressure Visibility Wind Dir Wind Speed Gust Speed Precip Events Conditions
12:53 AM 72.0 °F - 68.0 °F 87% 30.06 in 7.0 mi Calm Calm - N/A   Clear
1:53 AM 71.1 °F - 68.0 °F 90% 30.06 in 9.0 mi Calm Calm - N/A   Clear
2:53 AM 72.0 °F - 66.0 °F 81% 30.06 in 10.0 mi West 3.5 mph - N/A   Clear
3:53 AM 73.0 °F - 66.9 °F 81% 30.06 in 10.0 mi West 3.5 mph - N/A   Clear
4:53 AM 72.0 °F - 66.9 °F 84% 30.07 in 9.0 mi West 4.6 mph - N/A   Clear
5:53 AM 71.1 °F - 66.9 °F 87% 30.08 in 8.0 mi Calm Calm - N/A   Clear
6:53 AM 72.0 °F - 68.0 °F 87% 30.08 in 6.0 mi Variable 4.6 mph - N/A   Clear
7:53 AM 75.0 °F - 69.1 °F 82% 30.09 in 7.0 mi WNW 4.6 mph - N/A   Clear
8:53 AM 79.0 °F - 68.0 °F 69% 30.10 in 10.0 mi NNW 4.6 mph - N/A   Clear
9:53 AM 84.0 °F 86.5 °F 66.9 °F 56% 30.10 in 10.0 mi North 4.6 mph - N/A   Partly Cloudy
10:53 AM 88.0 °F 88.7 °F 63.0 °F 43% 30.09 in 10.0 mi NNW 8.1 mph - N/A   Clear
11:53 AM 88.0 °F 88.7 °F 63.0 °F 43% 30.08 in 10.0 mi Variable 6.9 mph - N/A   Partly Cloudy
12:53 PM 89.1 °F 89.3 °F 62.1 °F 40% 30.06 in 10.0 mi NW 5.8 mph - N/A   Scattered Clouds
1:53 PM 91.0 °F 91.5 °F 62.1 °F 38% 30.04 in 10.0 mi Calm Calm - N/A   Partly Cloudy
2:53 PM 90.0 °F 90.6 °F 63.0 °F 40% 30.02 in 10.0 mi NW 6.9 mph - N/A   Partly Cloudy
3:53 PM 87.1 °F 88.9 °F 64.9 °F 48% 30.01 in 10.0 mi Calm Calm - N/A   Mostly Cloudy
4:53 PM 82.9 °F 85.8 °F 68.0 °F 60% 29.99 in 10.0 mi South 6.9 mph - 0.01 in   Partly Cloudy
5:53 PM 84.0 °F 85.4 °F 64.0 °F 51% 29.98 in 10.0 mi South 3.5 mph - N/A   Mostly Cloudy
5:59 PM 82.4 °F 83.9 °F 64.4 °F 54% 29.98 in 2.5 mi WSW 3.5 mph - 0.04 in Rain , Thunderstorm Thunderstorms and Rain
6:06 PM 80.6 °F 82.7 °F 66.2 °F 61% 29.98 in 4.0 mi NW 3.5 mph - 0.11 in Rain , Thunderstorm Heavy Thunderstorms and Rain
6:29 PM 78.8 °F - 71.6 °F 78% 29.98 in 9.0 mi SSW 3.5 mph - 0.19 in   Mostly Cloudy
6:53 PM 79.0 °F - 70.0 °F 74% 29.98 in 9.0 mi SSW 4.6 mph - 0.19 in   Mostly Cloudy
7:53 PM 75.9 °F - 71.1 °F 85% 30.01 in 7.0 mi East 3.5 mph - N/A Thunderstorm Thunderstorm
8:53 PM 75.9 °F - 66.0 °F 71% 30.04 in 10.0 mi SSE 4.6 mph - N/A Thunderstorm Thunderstorm
9:53 PM 69.1 °F - 66.0 °F 90% 30.08 in 9.0 mi NNE 6.9 mph - 0.09 in Rain , Thunderstorm Light Thunderstorms and Rain
10:53 PM 70.0 °F - 66.0 °F 87% 30.05 in 10.0 mi Calm Calm - 0.01 in Thunderstorm Mostly Cloudy
11:53 PM 75.2 °F - 59.0 °F 57% 30.03 in 10.0 mi NE 8.1 mph 17.3 mph N/A Thunderstorm Thunderstorm